Showing default

HYDRA-3, 69022

Orbit data source: Space-Track

HYDRA-3, 69022 is a payload satellite owned by AISTech (ES) in SSO that was launched on Sun, 03 May 2026 UTC via an FALCON 9 launch vehicle from the Air Force Western Test Range (AFWTR). Payload-class satellites include a variety of spacecraft equipped with specific instruments for various scientific and technological missions. These include communications satellites like Starlink; space stations such as the ISS; scientific satellites like the Hubble; Earth observation satellites from companies like Planet Labs, Umbra, and HawkEye 360; GPS; miniature CubeSats for education and research; and military/defense satellites.

Loading next visibility...
Identifier
69022, 2026-100AU
Orbit
SSO
Country
Flag of ESES / SPN
Related business
Manufacturer
Endurosat
Mission
Operational Commercial Imaging
Bus & Motor
CUBESAT 6U, Unknown motor
Mass
10 kg wet, 10 kg dry
Launch date (UTC)
2026-05-03 (5 months ago)
Launch vehicle
FALCON 9
Launch site
Air Force Western Test Range (AFWTR)
Object type
Payload
Rocket body
Debris
Shape & HBR
Box + 3 Pan, 0.3 m
Radar Cross Section
0.054 m², Medium (>0.1 m² and < 1m²)

Expand to show TLE details & history
Last TLE update: 10 hours ago

TLE from 10 hours ago
0 HYDRA-3
1 69022U 26100AU  26266.17545237  .00003803  00000-0  17599-3 0  9992
2 69022  97.3889 162.0738 0005505  30.1546 330.0005 15.20720739 21691
Epoch: 2026-09-23T04:12Z
TLE epoch observation values (Epoch: 2026-09-23T04:12:39.084Z)
Latitude
-0.00009°
Longitude
96.88062°
Altitude
503.476 km
Speed
7.614 km/s
True Right ascension
10h 48m 17s
True Declination
0° 00' 00"
Sunlit
Object was in daylight at epoch
Visualization orbit readout
Latitude
Unknown
Longitude
Unknown
Altitude
Unknown
Speed
Unknown
Apparent Right ascension
Unknown
Apparent Declination
Unknown
Sunlit
N/A
Visualization observer readout
Local Sidereal Time
07:33:03
Azimuth
Unknown
Elevation
Unknown
Doppler factor
Unknown
Orbital elements
Apogee altitude
504.416 km
Perigee altitude
496.843 km
Semi-major axis
6,878.766 km
Eccentricity
0.00055
Inclination
97.3889°
RAAN
162.0738°
Arg. of periapsis
30.1546°
True anomaly
329.96894°
Mean anomaly
330.0005°
Eccentric anomaly
329.98472°
Mean motion
3.80432 °/min
Orbital period
94.63 mins
BSTAR
0.00017599
Loading maneuver chart data...
Computing Atmospheric mass density...
Loading historical data...
Loading historical data...
Loading historical data...
Loading historical data...
Loading historical data...
Loading historical data...
Loading historical data...

Documentation

Showing up to 5 results
|